Weather History for Natchez, MS

Change the Weather History Date:

Wednesday, March 12, 2014

  Actual Average Record
Temperature  
Mean Temperature 54 °F -  
Max Temperature 62 °F 71 °F 87 °F (1973)
Min Temperature 46 °F 50 °F 26 °F (1998)
Degree Days  
Heating Degree Days 11    
Growing Degree Days 4 (Base 50)    
Moisture  
Dew Point 44 °F    
Average Humidity 65    
Maximum Humidity 94    
Minimum Humidity 31    
Precipitation  
Precipitation 0.00 in - - ()
Sea Level Pressure  
Sea Level Pressure 29.93 in    
Wind  
Wind Speed 10 mph (NW)    
Max Wind Speed 23 mph    
Max Gust Speed 34 mph    
Visibility 10 miles    
Events      
Averages and records for this station are not official NWS values.
T = Trace of Precipitation, MM = Missing Value Source: NWS Daily Summary

Daily Weather History Graph

Daily Weather History Graph

Search for Another Location

Airport:

Trip Planner

Search our weather history database for the weather conditions in past years. The results will help you decide how hot, cold, wet, or windy it might be!

Date:

Astronomy

Mar. 12, 2014 Rise Set
Actual Time 7:18 AM CDT 7:11 PM CDT
Civil Twilight 6:54 AM CDT 7:35 PM CDT
Nautical Twilight 6:26 AM CDT 8:03 PM CDT
Astronomical Twilight 5:58 AM CDT 8:32 PM CDT
Moon 3:52 PM CDT (3/12) 4:39 AM CDT (3/12)
Length of Visible Light 12h 40m
Length of Day
11h 52m
Waxing Gibbous, 85% of the Moon is Illuminated
Mar 12
Waxing Gibbous
Mar 16
Full
Mar 23
Last Quarter
Mar 30
New
Apr 7
First Quarter

Hourly Weather History & Observations

Time (CDT) Temp. Windchill Dew Point Humidity Pressure Visibility Wind Dir Wind Speed Gust Speed Precip Events Conditions
12:15 AM 62.6 °F - 60.8 °F 94% 29.72 in 10.0 mi SSW 6.9 mph - N/A   Overcast
12:35 AM 62.6 °F - 60.8 °F 94% 29.72 in 10.0 mi SW 6.9 mph - N/A   Overcast
12:55 AM 62.6 °F - 59.0 °F 88% 29.72 in 10.0 mi SW 6.9 mph - N/A   Overcast
1:15 AM 60.8 °F - 57.2 °F 88% 29.71 in 10.0 mi South 5.8 mph - N/A   Overcast
1:35 AM 60.8 °F - 57.2 °F 88% 29.71 in 10.0 mi SSW 4.6 mph - N/A   Scattered Clouds
1:55 AM 59.0 °F - 57.2 °F 94% 29.71 in 9.0 mi SSW 5.8 mph - N/A   Partly Cloudy
2:15 AM 59.0 °F - 57.2 °F 94% 29.71 in 9.0 mi SW 5.8 mph - N/A   Scattered Clouds
2:35 AM 59.0 °F - 57.2 °F 94% 29.71 in 10.0 mi SSW 5.8 mph - N/A   Mostly Cloudy
2:55 AM 59.0 °F - 57.2 °F 94% 29.71 in 10.0 mi SW 6.9 mph - N/A   Mostly Cloudy
3:15 AM 59.0 °F - 57.2 °F 94% 29.72 in 10.0 mi SW 8.1 mph - N/A   Mostly Cloudy
3:35 AM 59.0 °F - 57.2 °F 94% 29.72 in 10.0 mi SW 9.2 mph - N/A   Overcast
3:55 AM 59.0 °F - 57.2 °F 94% 29.73 in 10.0 mi WSW 9.2 mph - N/A   Overcast
4:15 AM 59.0 °F - 55.4 °F 88% 29.73 in 10.0 mi WSW 11.5 mph 19.6 mph N/A   Overcast
4:35 AM 59.0 °F - 55.4 °F 88% 29.73 in 10.0 mi SW 8.1 mph - N/A   Overcast
4:55 AM 57.2 °F - 55.4 °F 94% 29.74 in 10.0 mi WSW 10.4 mph - N/A   Overcast
5:15 AM 57.2 °F - 55.4 °F 94% 29.74 in 9.0 mi SW 6.9 mph - N/A   Overcast
5:35 AM 57.2 °F - 55.4 °F 94% 29.75 in 8.0 mi SW 9.2 mph - N/A   Overcast
5:55 AM 57.2 °F - 55.4 °F 94% 29.76 in 8.0 mi SW 8.1 mph - N/A   Overcast
6:15 AM 57.2 °F - 55.4 °F 94% 29.76 in 8.0 mi WSW 8.1 mph - N/A   Overcast
6:35 AM 57.2 °F - 55.4 °F 94% 29.77 in 8.0 mi WSW 9.2 mph - N/A   Overcast
6:55 AM 57.2 °F - 55.4 °F 94% 29.79 in 7.0 mi WSW 9.2 mph - N/A   Overcast
7:15 AM 57.2 °F - 55.4 °F 94% 29.80 in 7.0 mi WSW 8.1 mph - N/A   Overcast
7:35 AM 57.2 °F - 55.4 °F 94% 29.81 in 6.0 mi West 6.9 mph - N/A   Overcast
7:55 AM 57.2 °F - 55.4 °F 94% 29.82 in 7.0 mi West 10.4 mph - N/A   Overcast
8:15 AM 59.0 °F - 55.4 °F 88% 29.84 in 9.0 mi WNW 10.4 mph - N/A   Overcast
8:35 AM 59.0 °F - 55.4 °F 88% 29.86 in 10.0 mi NW 11.5 mph - N/A   Overcast
8:55 AM 57.2 °F - 55.4 °F 94% 29.87 in 10.0 mi NNW 13.8 mph 21.9 mph N/A   Overcast
9:15 AM 57.2 °F - 51.8 °F 82% 29.88 in 10.0 mi NNW 18.4 mph 26.5 mph N/A   Overcast
9:35 AM 55.4 °F - 46.4 °F 72% 29.90 in 10.0 mi NNW 20.7 mph 29.9 mph N/A   Mostly Cloudy
9:55 AM 55.4 °F - 44.6 °F 67% 29.92 in 10.0 mi North 16.1 mph 27.6 mph N/A   Overcast
10:15 AM 55.4 °F - 44.6 °F 67% 29.94 in 10.0 mi NNW 20.7 mph 25.3 mph N/A   Overcast
10:35 AM 57.2 °F - 46.4 °F 67% 29.94 in 10.0 mi NNW 17.3 mph 25.3 mph N/A   Scattered Clouds
10:55 AM 57.2 °F - 44.6 °F 63% 29.95 in 10.0 mi North 18.4 mph 25.3 mph N/A   Partly Cloudy
11:15 AM 57.2 °F - 44.6 °F 63% 29.96 in 10.0 mi North 20.7 mph 26.5 mph N/A   Mostly Cloudy
11:35 AM 57.2 °F - 44.6 °F 63% 29.96 in 10.0 mi NNW 23.0 mph 28.8 mph N/A   Overcast
11:55 AM 57.2 °F - 44.6 °F 63% 29.98 in 10.0 mi North 19.6 mph 26.5 mph N/A   Overcast
12:15 PM 57.2 °F - 44.6 °F 63% 29.99 in 10.0 mi North 15.0 mph 25.3 mph N/A   Overcast
12:35 PM 59.0 °F - 44.6 °F 59% 29.99 in 10.0 mi North 20.7 mph 27.6 mph N/A   Overcast
12:55 PM 59.0 °F - 44.6 °F 59% 30.00 in 10.0 mi NNW 21.9 mph 27.6 mph N/A   Overcast
1:15 PM 60.8 °F - 44.6 °F 55% 30.00 in 10.0 mi North 13.8 mph 26.5 mph N/A   Overcast
1:35 PM 60.8 °F - 42.8 °F 52% 30.01 in 10.0 mi North 15.0 mph 26.5 mph N/A   Overcast
1:55 PM 59.0 °F - 39.2 °F 48% 30.01 in 10.0 mi NNE 20.7 mph 26.5 mph N/A   Scattered Clouds
2:15 PM 60.8 °F - 39.2 °F 45% 30.01 in 10.0 mi NNW 23.0 mph 34.5 mph N/A   Clear
3:15 PM 60.8 °F - 37.4 °F 42% 30.01 in 10.0 mi North 13.8 mph 21.9 mph N/A   Unknown
3:35 PM 60.8 °F - 39.2 °F 45% 30.01 in 10.0 mi North 15.0 mph 23.0 mph N/A   Clear
3:55 PM 60.8 °F - 37.4 °F 42% 30.01 in 10.0 mi NNW 15.0 mph 25.3 mph N/A   Clear
4:15 PM 60.8 °F - 37.4 °F 42% 30.02 in 10.0 mi North 16.1 mph 23.0 mph N/A   Clear
4:35 PM 60.8 °F - 35.6 °F 39% 30.02 in 10.0 mi North 19.6 mph 26.5 mph N/A   Clear
4:55 PM 62.6 °F - 35.6 °F 37% 30.03 in 10.0 mi North 15.0 mph 21.9 mph N/A   Clear
5:15 PM 60.8 °F - 33.8 °F 36% 30.04 in 10.0 mi NNW 16.1 mph 25.3 mph N/A   Clear
5:35 PM 60.8 °F - 32.0 °F 34% 30.04 in 10.0 mi North 19.6 mph 26.5 mph N/A   Clear
5:55 PM 60.8 °F - 30.2 °F 31% 30.04 in 10.0 mi North 16.1 mph 24.2 mph N/A   Clear
6:15 PM 60.8 °F - 30.2 °F 31% 30.05 in 10.0 mi NNW 16.1 mph 27.6 mph N/A   Clear
6:35 PM 59.0 °F - 28.4 °F 31% 30.06 in 10.0 mi NNW 12.7 mph 19.6 mph N/A   Clear
6:55 PM 57.2 °F - 28.4 °F 33% 30.06 in 10.0 mi North 9.2 mph - N/A   Clear
7:15 PM 55.4 °F - 32.0 °F 41% 30.08 in 10.0 mi NNE 10.4 mph - N/A   Clear
7:35 PM 55.4 °F - 30.2 °F 38% 30.09 in 10.0 mi North 15.0 mph 25.3 mph N/A   Clear
7:55 PM 53.6 °F - 30.2 °F 41% 30.11 in 10.0 mi NNE 11.5 mph - N/A   Clear
8:15 PM 51.8 °F - 28.4 °F 41% 30.12 in 10.0 mi North 13.8 mph - N/A   Clear
8:35 PM 51.8 °F - 28.4 °F 41% 30.12 in 10.0 mi North 11.5 mph 18.4 mph N/A   Clear
8:55 PM 51.8 °F - 26.6 °F 38% 30.13 in 10.0 mi North 11.5 mph 16.1 mph N/A   Clear
9:15 PM 50.0 °F - 26.6 °F 40% 30.14 in 10.0 mi NNE 8.1 mph - N/A   Clear
9:35 PM 48.2 °F - 26.6 °F 43% 30.15 in 10.0 mi NNE 9.2 mph - N/A   Clear
9:55 PM 48.2 °F - 26.6 °F 43% 30.16 in 10.0 mi North 9.2 mph - N/A   Clear
10:15 PM 48.2 °F - 26.6 °F 43% 30.16 in 10.0 mi North 6.9 mph - N/A   Clear
10:35 PM 46.4 °F 43.5 °F 26.6 °F 46% 30.16 in 10.0 mi North 5.8 mph - N/A   Clear
10:55 PM 46.4 °F 42.9 °F 26.6 °F 46% 30.17 in 10.0 mi North 6.9 mph - N/A   Clear
11:15 PM 46.4 °F 43.5 °F 26.6 °F 46% 30.18 in 10.0 mi NNE 5.8 mph - N/A   Clear
11:35 PM 46.4 °F 43.5 °F 26.6 °F 46% 30.19 in 10.0 mi NNE 5.8 mph - N/A   Clear
11:55 PM 46.4 °F 44.3 °F 26.6 °F 46% 30.19 in 10.0 mi NNE 4.6 mph - N/A   Clear